Hourly Weather Luboń

Today, 24 September, Thursday

Time Temperature Precipitation Wind Pressure Humidity
00:00 +17°C° 0.2 mm 2 mps 733 mmHg 89%
01:00 +17°C° 0 mm 2 mps 733 mmHg 85%
02:00 +16°C° 0 mm 2 mps 733 mmHg 86%
03:00 +16°C° 0 mm 2 mps 733 mmHg 87%
04:00 +16°C° 0 mm 2 mps 733 mmHg 88%
05:00 +16°C° 0 mm 2 mps 733 mmHg 87%
06:00 +16°C° 0 mm 3 mps 733 mmHg 86%
07:00 +16°C° 0 mm 3 mps 733 mmHg 82%
08:00 +18°C° 0 mm 4 mps 734 mmHg 76%
09:00 +19°C° 0 mm 4 mps 734 mmHg 71%
10:00 +21°C° 0 mm 5 mps 734 mmHg 65%
11:00 +22°C° 0.1 mm 5 mps 734 mmHg 63%
12:00 +22°C° 0.1 mm 5 mps 734 mmHg 61%
13:00 +23°C° 0.1 mm 5 mps 734 mmHg 59%
14:00 +23°C° 0.3 mm 4 mps 734 mmHg 62%
15:00 +22°C° 0.3 mm 3 mps 734 mmHg 64%
16:00 +22°C° 0.3 mm 3 mps 734 mmHg 67%
17:00 +20°C° 0 mm 2 mps 734 mmHg 72%
18:00 +19°C° 0 mm 2 mps 734 mmHg 77%
19:00 +18°C° 0 mm 1 mps 734 mmHg 82%
20:00 +18°C° 0 mm 1 mps 733 mmHg 83%
21:00 +18°C° 0 mm 1 mps 733 mmHg 83%
22:00 +16°C° 0 mm 1 mps 733 mmHg 84%
23:00 +16°C° 0 mm 2 mps 732 mmHg 85%

Tomorrow, 25 September, Friday

Time Temperature Precipitation Wind Pressure Humidity
00:00 +16°C° 0 mm 2 mps 731 mmHg 86%
01:00 +15°C° 0 mm 2 mps 730 mmHg 86%
02:00 +15°C° 0.1 mm 2 mps 730 mmHg 85%
03:00 +16°C° 0.1 mm 2 mps 729 mmHg 84%
04:00 +16°C° 0.1 mm 2 mps 728 mmHg 83%
05:00 +16°C° 0.3 mm 2 mps 728 mmHg 84%
06:00 +16°C° 0.3 mm 2 mps 727 mmHg 85%
07:00 +16°C° 0.3 mm 3 mps 726 mmHg 87%
08:00 +16°C° 1 mm 3 mps 726 mmHg 88%
09:00 +14°C° 1 mm 4 mps 726 mmHg 89%
10:00 +14°C° 1 mm 4 mps 726 mmHg 90%
11:00 +14°C° 0.2 mm 4 mps 726 mmHg 88%
12:00 +16°C° 0.2 mm 3 mps 726 mmHg 85%
13:00 +16°C° 0.2 mm 3 mps 727 mmHg 83%
14:00 +16°C° 0.7 mm 3 mps 727 mmHg 84%
15:00 +14°C° 0.7 mm 3 mps 727 mmHg 84%
16:00 +13°C° 0.7 mm 4 mps 727 mmHg 85%
17:00 +13°C° 0.2 mm 3 mps 727 mmHg 85%
18:00 +12°C° 0.2 mm 3 mps 727 mmHg 86%
19:00 +11°C° 0.2 mm 3 mps 728 mmHg 86%
20:00 +12°C° 0.1 mm 2 mps 727 mmHg 87%
21:00 +12°C° 0.1 mm 2 mps 727 mmHg 88%
22:00 +12°C° 0.1 mm 2 mps 727 mmHg 89%
23:00 +12°C° 0.3 mm 2 mps 727 mmHg 90%

Day after tomorrow, 26 September, Saturday

Time Temperature Precipitation Wind Pressure Humidity
00:00 +12°C° 0.3 mm 2 mps 727 mmHg 91%
01:00 +12°C° 0.3 mm 2 mps 726 mmHg 92%
02:00 +10°C° 0.7 mm 3 mps 725 mmHg 93%
03:00 +10°C° 0.7 mm 3 mps 725 mmHg 93%
04:00 +10°C° 0.7 mm 4 mps 724 mmHg 94%
05:00 +10°C° 4.6 mm 4 mps 724 mmHg 95%
06:00 +10°C° 4.6 mm 4 mps 723 mmHg 96%
07:00 +9°C° 4.6 mm 5 mps 723 mmHg 97%
08:00 +10°C° 3.6 mm 4 mps 723 mmHg 97%
09:00 +10°C° 3.6 mm 4 mps 723 mmHg 97%
10:00 +10°C° 3.6 mm 4 mps 723 mmHg 97%
11:00 +11°C° 0.3 mm 3 mps 723 mmHg 96%
12:00 +11°C° 0.3 mm 3 mps 723 mmHg 96%
13:00 +13°C° 0.3 mm 2 mps 723 mmHg 95%
14:00 +11°C° 0 mm 3 mps 724 mmHg 91%
15:00 +11°C° 0 mm 4 mps 724 mmHg 87%
16:00 +10°C° 0 mm 5 mps 725 mmHg 83%
17:00 +10°C° 0 mm 4 mps 725 mmHg 84%
18:00 +7°C° 0 mm 4 mps 726 mmHg 85%
19:00 +6°C° 0 mm 4 mps 726 mmHg 86%
20:00 +7°C° 0 mm 3 mps 727 mmHg 86%
21:00 +7°C° 0 mm 3 mps 728 mmHg 87%
22:00 +5°C° 0 mm 3 mps 728 mmHg 87%
23:00 +7°C° 0 mm 3 mps 728 mmHg 87%

27 September, Sunday

Time Temperature Precipitation Wind Pressure Humidity
00:00 +7°C° 0 mm 3 mps 728 mmHg 87%
01:00 +7°C° 0 mm 3 mps 728 mmHg 87%
02:00 +7°C° 0 mm 3 mps 728 mmHg 88%
03:00 +6°C° 0 mm 2 mps 728 mmHg 88%
04:00 +6°C° 0 mm 2 mps 728 mmHg 88%
05:00 +7°C° 0.1 mm 2 mps 728 mmHg 88%
06:00 +7°C° 0.1 mm 2 mps 728 mmHg 88%
07:00 +7°C° 0.1 mm 2 mps 728 mmHg 88%
08:00 +7°C° 0.4 mm 2 mps 727 mmHg 89%
09:00 +8°C° 0.4 mm 3 mps 727 mmHg 90%
10:00 +8°C° 0.4 mm 3 mps 727 mmHg 92%
11:00 +8°C° 1.6 mm 3 mps 727 mmHg 93%
12:00 +7°C° 1.6 mm 4 mps 727 mmHg 94%
13:00 +7°C° 1.6 mm 4 mps 726 mmHg 95%
14:00 +7°C° 2 mm 4 mps 726 mmHg 95%
15:00 +7°C° 2 mm 5 mps 726 mmHg 96%
16:00 +8°C° 2 mm 5 mps 726 mmHg 96%
17:00 +8°C° 2.2 mm 5 mps 725 mmHg 96%
18:00 +8°C° 2.2 mm 5 mps 725 mmHg 96%
19:00 +8°C° 2.2 mm 5 mps 725 mmHg 97%
20:00 +8°C° 0.6 mm 4 mps 725 mmHg 97%
21:00 +10°C° 0.6 mm 4 mps 725 mmHg 97%
22:00 +10°C° 0.6 mm 4 mps 725 mmHg 97%
23:00 +10°C° 0.3 mm 4 mps 725 mmHg 97%

28 September, Monday

Time Temperature Precipitation Wind Pressure Humidity
00:00 +11°C° 0.3 mm 4 mps 725 mmHg 96%
01:00 +11°C° 0.3 mm 4 mps 725 mmHg 96%
02:00 +10°C° 0 mm 4 mps 726 mmHg 95%
03:00 +10°C° 0 mm 4 mps 726 mmHg 95%
04:00 +9°C° 0 mm 3 mps 726 mmHg 94%
05:00 +8°C° 0 mm 4 mps 726 mmHg 94%
06:00 +8°C° 0 mm 4 mps 727 mmHg 93%
07:00 +8°C° 0 mm 4 mps 727 mmHg 93%
08:00 +8°C° 0.1 mm 4 mps 728 mmHg 92%
09:00 +10°C° 0.1 mm 4 mps 728 mmHg 90%
10:00 +10°C° 0.1 mm 4 mps 729 mmHg 89%
11:00 +10°C° 0.2 mm 4 mps 729 mmHg 88%
12:00 +9°C° 0.2 mm 5 mps 730 mmHg 88%
13:00 +9°C° 0.2 mm 5 mps 730 mmHg 87%
14:00 +9°C° 0.3 mm 5 mps 731 mmHg 88%
15:00 +9°C° 0.3 mm 5 mps 731 mmHg 89%
16:00 +9°C° 0.3 mm 5 mps 731 mmHg 90%
17:00 +9°C° 0.2 mm 5 mps 732 mmHg 91%
18:00 +9°C° 0.2 mm 5 mps 733 mmHg 92%
19:00 +10°C° 0.2 mm 4 mps 733 mmHg 93%
20:00 +8°C° 0.1 mm 4 mps 734 mmHg 94%
21:00 +8°C° 0.1 mm 4 mps 734 mmHg 94%
22:00 +8°C° 0.1 mm 4 mps 735 mmHg 95%
23:00 +8°C° 0.1 mm 4 mps 735 mmHg 95%

29 September, Tuesday

Time Temperature Precipitation Wind Pressure Humidity
00:00 +8°C° 0.1 mm 4 mps 735 mmHg 96%
01:00 +9°C° 0.1 mm 3 mps 736 mmHg 96%
02:00 +8°C° 0 mm 3 mps 736 mmHg 96%
03:00 +8°C° 0 mm 3 mps 736 mmHg 96%
04:00 +8°C° 0 mm 3 mps 737 mmHg 97%
05:00 +8°C° 0 mm 3 mps 737 mmHg 96%
06:00 +8°C° 0 mm 3 mps 737 mmHg 96%
07:00 +8°C° 0 mm 3 mps 738 mmHg 96%
08:00 +9°C° 0 mm 3 mps 738 mmHg 93%
09:00 +10°C° 0 mm 3 mps 738 mmHg 90%
10:00 +11°C° 0 mm 3 mps 738 mmHg 86%
11:00 +12°C° 0 mm 3 mps 738 mmHg 82%
12:00 +13°C° 0 mm 3 mps 739 mmHg 78%
13:00 +14°C° 0 mm 3 mps 739 mmHg 74%
14:00 +14°C° 0 mm 3 mps 739 mmHg 73%
15:00 +14°C° 0 mm 3 mps 739 mmHg 73%
16:00 +14°C° 0 mm 3 mps 739 mmHg 72%
17:00 +14°C° 0 mm 2 mps 739 mmHg 77%
18:00 +13°C° 0 mm 2 mps 740 mmHg 82%
19:00 +11°C° 0 mm 1 mps 740 mmHg 88%
20:00 +11°C° 0 mm 1 mps 740 mmHg 89%
21:00 +11°C° 0 mm 1 mps 740 mmHg 90%
22:00 +10°C° 0 mm 1 mps 740 mmHg 91%
23:00 +10°C° 0 mm 1 mps 740 mmHg 91%
Show more